Regional Weather Roundup
Issued by NWS

Home | Current Version | Previous Version | Graphics & Text | Print | Product List | Glossary On
Versions: 1 2 3 4 5 6 7 8 9 10 11 12 13 14 15 16 17 18 19 20 21 22 23 24 25 26 27 28 29 30 31 32 33 34 35 36 37 38 39 40 41 42 43 44 45 46 47 48 49 50
356
ASUS43 KFSD 210602
RWRSD

WEATHER ROUNDUP FOR SOUTH DAKOTA
NATIONAL WEATHER SERVICE SIOUX FALLS SD
1200 AM CST SAT JAN 21 2017

NOTE: "FAIR" INDICATES FEW OR NO CLOUDS BELOW 12,000 FEET WITH NO
SIGNIFICANT WEATHER AND/OR OBSTRUCTIONS TO VISIBILITY.


SDZ001>005-009-010-012>017-210700-
NORTHWEST AND NORTH CENTRAL SOUTH DAKOTA

CITY           SKY/WX    TMP DP  RH WIND       PRES   REMARKS
BUFFALO          N/A     35  32  88 W18       29.28R WCI  24
FAITH            N/A     24  23  96 NW10      29.30F WCI  14
MOBRIDGE       FOG       23  20  88 SE6       29.29R VSB 1/4 WCI  16
$$

SDZ012>016-024>037-041>051-057-063-072>074-210700-
SOUTHWEST AND SOUTH CENTRAL SOUTH DAKOTA

CITY           SKY/WX    TMP DP  RH WIND       PRES   REMARKS
RAPID CTY ARPT LGT RAIN  34  32  92 NW17      29.35S WCI  23
PIERRE         CLOUDY    24  22  91 W10       29.34R FOG     WCI  14
CUSTER         CLOUDY    28  25  88 CALM      29.33R
ELLSWORTH AFB  LGT RAIN  34  34 100 NW16      29.34S WCI  23
PHILIP         PTCLDY    24  23  96 CALM      29.35R
PINE RIDGE     CLOUDY    32  32 100 SW5       29.37R WCI  27
WINNER         CLOUDY    35  30  82 W3        29.34F
$$

SDZ004>011-016>023-039-040-210700-
NORTHEAST SOUTH DAKOTA

CITY           SKY/WX    TMP DP  RH WIND       PRES   REMARKS
ABERDEEN       CLOUDY    30  27  88 N3        29.36S FOG
WATERTOWN      FOG       34  34 100 S13       29.37S VSB 1/4 WCI  25
BROOKINGS      FOG       36  35  96 SE10      29.39F VSB 1/2
SISSETON         N/A     34  34 100 S9        29.40R WCI  27
$$

SDZ017-020-022-023-036>040-048>070-210700-
SOUTHEAST SOUTH DAKOTA

CITY           SKY/WX    TMP DP  RH WIND       PRES   REMARKS
SIOUX FALLS    LGT RAIN  37  37 100 SE9       29.40F FOG
HURON          FOG       37  37 100 S10       29.35S VSB 1
CHAMBERLAIN    MOCLDY    27  26  94 NW7       29.35S WCI  20
MITCHELL       CLOUDY    39  39 100 S9        29.37F FOG
YANKTON        CLOUDY    37  36  93 CALM      29.38S VSB 3/4
$$

ABBREVIATIONS USED IN REMARKS
   TC - TEMPERATURE IN CELSIUS
  WCI - WIND CHILL INDEX
   HX - HEAT INDEX
  VSB - VISIBILITY





USA.gov is the U.S. government's official web portal to all federal, state and local government web resources and services.